OKEAN-3

Last updated on Mon Sep 21 2026 00:02:08 GMT+0000 (Coordinated Universal Time)

1 21397U 91039A 26263.11636813 .00001200 00000+0 80859-4 0 9998 2 21397 82.5183 148.3167 0014756 32.4858 327.7274 15.05690851894287
UTC large
Height (km)
Speed (km/s)
/
Latitude / Longitude
Inclination (degrees)
Orbital Period (minutes)
Azimuth
Elevation
Range (km)
Doppler Factor

Next 0 passes for location: London (51.5072 / 0.1276)

No passes found over London.
OKEAN-3